Flag for Germany Weather past 2 weeks in Kassel, Hesse, Germany

Now
52 °F

Cool.


Feels Like: 51 °F
Forecast: 46 / 67 °F
Wind: 3 mph from West

Location: Fritzlar Airport

Current Time: Jul 30, 2015 at 2:59:25 AM

Latest Report: Jul 30, 2015 at 2:20 AM


Visibility: N/A

Pressure: 29.89 "Hg

Humidity: 72%

Dew point: 43 °F

Location of KasselLocation

Historic Weather in Kassel — Graph

°F

Kassel temperature yesterday

Maximum temperature yesterday: 64 °F (at 2:20 PM)
Minimum temperature yesterday: 48 °F (at 4:20 AM)
Average temperature yesterday: 57 °F

Past Weeks' High & Low Weather Summary

 TemperatureHumidityPressure
High93 °F (Jul 17, 4:20 PM)100% (Jul 16, 5:20 AM)30.12 "Hg (Jul 16, 5:20 AM)
Low48 °F (Jul 29, 4:20 AM)24% (Jul 17, 5:20 PM)29.56 "Hg (Jul 25, 10:20 AM)
Average66 °F71%29.89 "Hg
* Reported Jul 15 1:20 AM — Jul 30 1:20 AM, Kassel, Weather by CustomWeather, © 2015

Note: Actual official high and low records may vary slightly from our data, if they occured in-between our weather recording intervals... More about our weather records

Advertising

Kassel weather history for previous 24 hours

 ConditionsComfort  
Time TempWeatherWind HumidityBarometerVisibility
1:20 AM
Thu, Jul 30
54 °FCool.8 mph67%29.89 "HgN/A
12:20 AM54 °FPassing clouds.9 mph72%29.89 "HgN/A
11:20 PM
Wed, Jul 29
54 °FPassing clouds.8 mph72%29.86 "HgN/A
10:20 PM54 °FPassing clouds.8 mph72%29.86 "HgN/A
9:20 PM55 °FPassing clouds.8 mph67%29.86 "HgN/A
8:20 PM61 °FPassing clouds.12 mph52%29.83 "HgN/A
7:20 PM63 °FPassing clouds.18 mph49%29.83 "HgN/A
6:20 PM63 °FPassing clouds.23 mph45%29.80 "HgN/A
5:20 PM63 °FPassing clouds.13 mph56%29.77 "HgN/A
4:20 PM59 °FPassing clouds.14 mph63%29.77 "HgN/A
3:20 PM59 °FScattered showers. Scattered clouds.10 mph63%29.77 "HgN/A
2:20 PM64 °FScattered clouds.16 mph46%29.74 "HgN/A
1:20 PM59 °FPartly sunny.16 mph63%29.74 "HgN/A
12:20 PM61 °FScattered showers. Partly sunny.12 mph59%29.74 "HgN/A
11:20 AM55 °FScattered showers. Scattered clouds.8 mph77%29.77 "HgN/A
10:20 AM61 °FScattered clouds.17 mph55%29.77 "HgN/A
9:20 AM59 °FScattered clouds.15 mph63%29.77 "HgN/A
8:20 AM57 °FScattered clouds.16 mph63%29.77 "HgN/A
7:20 AM54 °FPassing clouds.10 mph77%29.77 "HgN/A
6:20 AM48 °FPassing clouds.1 mph87%29.80 "HgN/A
5:20 AM48 °FPassing clouds.1 mph87%29.77 "HgN/A
4:20 AM48 °FPassing clouds.1 mph87%29.80 "HgN/A
3:20 AM50 °FPassing clouds.3 mph82%29.80 "HgN/A
2:20 AM52 °FPassing clouds.8 mph77%29.80 "HgN/A
Weather by CustomWeather, © 2015

See weather overviewHow to use our weather pages